Regional Weather Roundup
Issued by NWS Mobile, AL

Home | Current Version | Previous Version | Text Only | Print | Product List | Glossary On
Versions: 1 2 3 4 5 6 7 8 9 10 11 12 13 14 15 16 17 18 19 20 21 22 23 24 25 26 27 28
000
ASUS44 KMOB 250412
RWRMOB
REGIONAL WEATHER ROUNDUP
NATIONAL WEATHER SERVICE MOBILE AL
1100 PM CDT WED AUG 24 2016

NOTE: "FAIR" INDICATES FEW OR NO CLOUDS BELOW 12,000 FEET WITH NO
      SIGNIFICANT WEATHER AND/OR OBSTRUCTIONS TO VISIBILITY.

  * THESE STATIONS ARE PART OF THE UNIVERSITY OF SOUTH ALABAMA
    MESONET AND ARE NOT UNDER NWS OR FAA QUALITY CONTROL.

ALZ061>064-250500-
COASTAL ALABAMA

CITY           SKY/WX    TMP DP  RH WIND       PRES   REMARKS
MOBILE REG APT MOCLDY    79  76  90 E3        30.14S
BROOKLEY FIELD PTCLDY    83  80  91 E5        30.14S HX  95
USA CAMPUS*    NOT AVBL
DOG RIVER*     NOT AVBL


CITY           SKY/WX    TMP DP  RH WIND       PRES   REMARKS
MOUNT VERNON*  NOT AVBL
SARALAND*      NOT AVBL
BAY MINETTE*   NOT AVBL
LOXLEY*        NOT AVBL
ROBERTSDALE*   NOT AVBL
FAIRHOPE*      NOT AVBL
ELBERTA*       NOT AVBL
FOLEY*         NOT AVBL
GRAND BAY*     NOT AVBL
DAUPHIN ISLND* NOT AVBL
BON SCOUR NWR* NOT AVBL
GULF SHORES    CLEAR     79  79  99 CALM      30.12S

$$

ALZ051>060-250500-
INTERIOR SOUTHWEST AND SOUTH CENTRAL ALABAMA

CITY           SKY/WX    TMP DP  RH WIND       PRES   REMARKS
GREENVILLE     CLEAR     77  74  90 CALM      30.15F
EVERGREEN      CLEAR     75  73  93 CALM      30.15S FOG
CASTLEBERRY*   NOT AVBL
ATMORE*        NOT AVBL
DIXIE*         NOT AVBL
ANDALUSIA/OPP  CLEAR     81  75  82 CALM      30.14F
ANDALUSIA*     NOT AVBL
FLORALA APT    CLEAR     76  74  93 CALM      30.16S
FLORALA*       NOT AVBL

$$

FLZ001>006-250500-
WESTERN FLORIDA PANHANDLE

CITY           SKY/WX    TMP DP  RH WIND       PRES   REMARKS
PENSACOLA      CLEAR     79  77  94 CALM      30.12F
NAS PENSACOLA  CLEAR     80  78  94 CALM      30.11F
MILTON         CLEAR     76  75  97 N5        30.13F
WHTNG S FIELD  PTCLDY    78  77  96 N3        30.13F


CITY           SKY/WX    TMP DP  RH WIND       PRES   REMARKS
WALNUT HILL*   NOT AVBL
JAY*           NOT AVBL
DUKE FIELD     PTCLDY    76  75  95 CALM      30.13F
CRESTVIEW      PTCLDY    77  75  93 CALM      30.14F
VALPARAISO     NOT AVBL
DESTIN         PTCLDY    83  79  88 CALM      30.12F

$$

MSZ076-079-250500-
INTERIOR SOUTHEAST MISSISSIPPI

CITY           SKY/WX    TMP DP  RH WIND       PRES   REMARKS
LEAKESVILLE*   NOT AVBL
AGRICOLA*      NOT AVBL

$$

MARINE OBSERVATIONS

STATION/POSITION TIME  TEMP    WIND        PRES    WAVE
                       AIR SEA DIR/SP/G            HT/PER
                 (UTC) (F)     (DEG/KT/KT) (MB)    (FT/S)
PASCAGOULA       0300   81      50/  1/  2 1019.6R
PETIT BOIS ISLND 0300   84     110/  9/ 12 1020.3R
GRAND BAY        0200   82     160/  6     1021.0R
KATRINA CUT      0300   85     130/ 13     1020.3S
CEDAR POINT      0300   85     130/ 12     1019.6R
E DAUPHIN ISLAND 0300   86     120/ 12/ 13 1019.4R
MIDDLE BAY LIGHT 0300   84      90/  9     1020.0R
USCG MOBILE BAY  0300   83 88  110/  6/  7 1020.8R
STATE DOCKS      0300   81 87              1020.3R
MEAHER PARK      0300   80      30/  2     1020.0S
WEEKS BAY        0200   79                   N/A
FORT MORGAN      0300   85     140/ 13/ 15 1019.1F
12 S ORANGE BCH  0250   86 87  120/ 10/ 12 1019.7S   2/ 5
PENSACOLA BAY    0300   85 88  160/  2/  4 1020.3R
64 S DAUPHIN ISL 0300   86 89  110/ 12/ 16 1019.1R
67 S FORT MORGAN 0330   84     100/ 14     1019.3S

$$

SELECTED LOCATIONS ACROSS THE REGION

CITY           SKY/WX    TMP DP  RH WIND       PRES   REMARKS
NEW ORLEANS    CLOUDY    84  76  76 SE3       30.09F
GULFPORT       CLOUDY    78  76  93 NE3       30.11S
PASCAGOULA AP  PTCLDY    78  78 100 CALM      30.12S
PASCAGOULA*    NOT AVBL
HATTIESBURG    MOCLDY    78  74  87 CALM      30.13F
LAUREL         PTCLDY    75  73  94 SE3       30.14F
MERIDIAN       MOCLDY    82  76  81 S5        30.13F
JACKSON        PTCLDY    78  75  90 CALM      30.10F
MONTGOMERY     CLEAR     80  74  81 E5        30.15S
TROY           PTCLDY    79  77  94 CALM      30.16F
KINSTON*       NOT AVBL
GENEVA*        NOT AVBL
ASHFORD*       NOT AVBL
DOTHAN         MOCLDY    78  77  96 CALM      30.18F
PANAMA CITY    CLEAR     76  74  93 CALM      30.11F

$$





USA.gov is the U.S. government's official web portal to all federal, state and local government web resources and services.